Flag for Italy Weather past 2 weeks in Trieste, Italy

Now
44 °F

Passing clouds.


Feels Like: 42 °F
Forecast: 35 / 50 °F
Wind: 5 mph from East

Location: Trieste

Current Time: Jan 25, 2015 at 7:19:39 PM

Latest Report: Jan 25, 2015 at 6:00 PM


Visibility: 13 mi

Pressure: 30.08 "Hg

Humidity: 55%

Dew point: 29 °F

Location of TriesteLocation

Historic Weather in Trieste — Graph

°F

Trieste temperature yesterday

Maximum temperature yesterday: 51 °F (at 3:00 PM)
Minimum temperature yesterday: 45 °F (at 11:00 PM)
Average temperature yesterday: 49 °F

Past Weeks' High & Low Weather Summary

 TemperatureHumidityPressure
High57 °F (Jan 13, 11:00 AM)96% (Jan 11, 12:00 AM)30.39 "Hg (Jan 11, 12:00 AM)
Low38 °F (Jan 12, 8:00 AM)29% (Jan 12, 4:00 PM)29.72 "Hg (Jan 23, 5:00 AM)
Average48 °F72%30.00 "Hg
* Reported Jan 10 6:00 PM — Jan 25 6:00 PM, Trieste, Weather by CustomWeather, © 2014

Note: Actual official high and low records may vary slightly from our data, if they occured in-between our weather recording intervals... More about our weather records

Advertising

Trieste weather history for previous 24 hours

 ConditionsComfort  
Time TempWeatherWind HumidityBarometerVisibility
6:00 PM
Jan 25
44 °FPassing clouds.5 mph55%30.08 "Hg12 mi
5:00 PM45 °FPassing clouds.10 mph53%30.06 "Hg12 mi
4:00 PM47 °FPartly sunny.6 mph51%30.04 "Hg12 mi
3:00 PM48 °FPartly sunny.7 mph50%30.02 "Hg12 mi
2:00 PM47 °FOvercast.6 mph50%30.01 "Hg12 mi
1:00 PM47 °FOvercast.6 mph52%30.02 "Hg12 mi
12:00 PM46 °FOvercast.9 mph52%30.02 "Hg12 mi
11:00 AM45 °FOvercast.9 mph51%30.03 "Hg12 mi
10:00 AM44 °FOvercast.12 mph52%30.01 "Hg12 mi
9:00 AM43 °FPartly sunny.12 mph56%29.99 "Hg12 mi
8:00 AM43 °FPartly sunny.8 mph59%29.96 "Hg12 mi
7:00 AM44 °FPassing clouds.6 mph60%29.94 "Hg12 mi
6:00 AM44 °FOvercast.9 mph59%29.92 "Hg12 mi
5:00 AM45 °FOvercast.8 mph59%29.90 "Hg12 mi
3:00 AM45 °FOvercast.16 mph60%29.88 "Hg12 mi
2:00 AM45 °FOvercast.17 mph61%29.87 "Hg12 mi
1:00 AM45 °FOvercast.16 mph61%29.87 "Hg12 mi
12:00 AM45 °FOvercast.17 mph63%29.86 "Hg12 mi
11:00 PM
Jan 24
45 °FOvercast.17 mph62%29.85 "Hg12 mi
9:00 PM46 °FOvercast.15 mph61%29.85 "Hg12 mi
8:00 PM47 °FOvercast.15 mph61%29.83 "Hg12 mi
7:00 PM48 °FOvercast.15 mph61%29.82 "Hg12 mi
Weather by CustomWeather, © 2014

See weather overviewHow to use our weather pages